TimeEDT,TemperatureF,Dew PointF,Humidity,Sea Level PressureIn,VisibilityMPH,Wind Direction,Wind SpeedMPH,Gust SpeedMPH,PrecipitationIn,Events,Conditions,WindDirDegrees,DateUTC
12:15 AM,75.2,71.6,89,30.17,10.0,Calm,Calm,-,N/A,,Clear,0,2013-08-22 04:15:00
12:35 AM,75.2,71.6,89,30.16,10.0,Calm,Calm,-,N/A,,Clear,0,2013-08-22 04:35:00
12:55 AM,73.4,71.6,94,30.17,9.0,Calm,Calm,-,N/A,,Clear,0,2013-08-22 04:55:00
1:15 AM,73.4,71.6,94,30.16,8.0,Calm,Calm,-,N/A,,Clear,0,2013-08-22 05:15:00
1:35 AM,73.4,71.6,94,30.16,8.0,Calm,Calm,-,N/A,,Clear,0,2013-08-22 05:35:00
1:55 AM,73.4,71.6,94,30.16,8.0,Calm,Calm,-,N/A,,Clear,0,2013-08-22 05:55:00
2:15 AM,73.4,69.8,88,30.15,8.0,Calm,Calm,-,N/A,,Clear,0,2013-08-22 06:15:00
2:35 AM,73.4,71.6,94,30.15,10.0,Calm,Calm,-,N/A,,Clear,0,2013-08-22 06:35:00
2:55 AM,73.4,71.6,94,30.15,7.0,Calm,Calm,-,N/A,,Clear,0,2013-08-22 06:55:00
3:15 AM,73.4,69.8,88,30.15,10.0,Calm,Calm,-,N/A,,Partly Cloudy,0,2013-08-22 07:15:00
3:35 AM,73.4,71.6,94,30.15,10.0,Calm,Calm,-,N/A,,Clear,0,2013-08-22 07:35:00
3:55 AM,73.4,69.8,88,30.16,9.0,Calm,Calm,-,N/A,,Clear,0,2013-08-22 07:55:00
4:15 AM,73.4,71.6,94,30.15,10.0,Calm,Calm,-,N/A,,Clear,0,2013-08-22 08:15:00
4:35 AM,73.4,71.6,94,30.14,10.0,Calm,Calm,-,N/A,,Clear,0,2013-08-22 08:35:00
4:55 AM,73.4,71.6,94,30.14,10.0,Calm,Calm,-,N/A,,Clear,0,2013-08-22 08:55:00
5:15 AM,73.4,71.6,94,30.14,10.0,Calm,Calm,-,N/A,,Clear,0,2013-08-22 09:15:00
5:35 AM,73.4,69.8,88,30.13,10.0,Calm,Calm,-,N/A,,Clear,0,2013-08-22 09:35:00
5:55 AM,73.4,71.6,94,30.14,10.0,Calm,Calm,-,N/A,,Clear,0,2013-08-22 09:55:00
6:45 AM,73.4,71.6,94,30.14,10.0,Calm,Calm,-,N/A,,Clear,0,2013-08-22 10:45:00
7:45 AM,75.2,71.6,89,30.15,10.0,West,4.6,-,N/A,,Clear,270,2013-08-22 11:45:00
8:50 AM,78.8,73.4,83,30.15,10.0,West,5.8,-,N/A,,Clear,260,2013-08-22 12:50:00
9:45 AM,82.4,73.4,74,30.16,10.0,West,4.6,-,N/A,,Clear,260,2013-08-22 13:45:00
11:47 AM,84.2,71.6,66,30.14,10.0,West,5.8,-,N/A,,Scattered Clouds,270,2013-08-22 15:47:00
12:50 PM,82.4,73.4,74,30.13,10.0,West,5.8,-,N/A,,Mostly Cloudy,260,2013-08-22 16:50:00
1:45 PM,86.0,73.4,66,30.11,10.0,SSW,6.9,-,N/A,,Scattered Clouds,210,2013-08-22 17:45:00
2:45 PM,87.8,75.2,66,30.08,10.0,South,8.1,-,N/A,,Scattered Clouds,180,2013-08-22 18:45:00
3:45 PM,84.2,73.4,70,30.06,10.0,South,15.0,-,N/A,,Scattered Clouds,190,2013-08-22 19:45:00
4:45 PM,80.6,73.4,79,30.05,10.0,Variable,6.9,-,N/A,,Scattered Clouds,0,2013-08-22 20:45:00
6:45 PM,80.6,73.4,79,30.05,10.0,SW,6.9,-,N/A,,Scattered Clouds,220,2013-08-22 22:45:00
7:45 PM,78.8,73.4,83,30.05,10.0,Calm,Calm,-,N/A,,Scattered Clouds,0,2013-08-22 23:45:00
8:45 PM,77.0,73.4,89,30.05,10.0,Calm,Calm,-,N/A,,Partly Cloudy,0,2013-08-23 00:45:00
9:50 PM,75.2,71.6,89,30.07,10.0,Calm,Calm,-,N/A,,Clear,0,2013-08-23 01:50:00
10:45 PM,75.2,71.6,89,30.05,10.0,Calm,Calm,-,N/A,,Clear,0,2013-08-23 02:45:00
11:15 PM,73.4,71.6,94,30.06,10.0,Calm,Calm,-,N/A,,Clear,0,2013-08-23 03:15:00
11:35 PM,73.4,71.6,94,30.05,10.0,Calm,Calm,-,N/A,,Clear,0,2013-08-23 03:35:00
11:55 PM,73.4,69.8,88,30.05,10.0,Calm,Calm,-,N/A,,Clear,0,2013-08-23 03:55:00